User: anonymous   Login
Location: Stigler
(35.2540°N, 95.1230°W)
Time: 18:25:49
(UTC-06:00)
Language:

Cosmos 1805 - Orbit

View from above orbital plane
View from above orbital plane
View from above satellite
View from above satellite

Ground track
Ground track

The orbit data is extracted from the following two-line orbital elements,

1 17191U 86097A   14329.42493303  .00004598  00000-0  29307-3 0   436
2 17191 082.5026 228.2556 0009907 054.1877 306.0271 15.08475777522527
Epoch (UTC): 25 November 2014 10:11:54
Eccentricity: 0.0009907
inclination: 82.5026°
perigee height: 534 km
apogee height: 548 km
right ascension of ascending node: 228.2556°
argument of perigee: 54.1877°
revolutions per day: 15.08475777
mean anomaly at epoch: 306.0271°
orbit number at epoch: 52252

The dashed part of the orbit path shows where the satellite is in the earth's shadow,  

DLR